Location: Little Arabia
(41.4620°N, 81.7687°W)
Time: 20:13:00
(UTC+00:00)

CZ-4 R/B - Pass Details

Date: 29 October 2020
Orbit: 532 x 598 km, 97.7° (Epoch: 02 December)

Event Time Altitude Azimuth Distance (km) Brightness Sun altitude
Rises 23:45:52 0° 157° (SSE) 2,699 4.7 -15.6°
Reaches altitude 10° 23:48:00 10° 154° (SSE) 1,803 3.7 -16.0°
Maximum altitude 23:51:50 59° 75° (ENE) 624 1.2 -16.8°
Drops below altitude 10° 23:55:38 10° 355° (N) 1,796 4.0 -17.5°
Sets 23:57:46 0° 352° (N) 2,688 4.9 -17.9°
